Location: La Oliva
(42.2466°N, 2.9955°E)
Time: 10:09:52
(UTC+00:00)

Cosmos 2227 Rocket - Pass Details

Date: 22 April 2021
Orbit: 840 x 844 km, 71.0° (Epoch: 11 May)

Event Time Altitude Azimuth Distance (km) Brightness Sun altitude
Rises 20:32:17 0° 207° (SSW) 3,387 5.2 -19.5°
Reaches altitude 10° 20:34:43 10° 209° (SSW) 2,455 4.5 -19.8°
Maximum altitude 20:40:21 75° 295° (WNW) 875 2.3 -20.6°
Drops below altitude 10° 20:46:02 10° 21° (NNE) 2,469 4.9 -21.4°
Sets 20:48:29 0° 23° (NNE) 3,407 5.6 -21.7°
